Temp
2 1 1 1 0 0 1 0 0 -0 -0 -1 -2 -0 -0 -1 -1 -1 -1 -2 -2 -2 -2 -2 -2 -1 -1 -0 -0 0 -0 0 2 3 9 12 14 15 15 14 14 14 13
1 0 0 -0 -0 -0 -0 -0 -1 -1 -1 -2 -2 -1 -1 -2 -1 -2 -3 -3 -3 -2 -2 -2 -2 -2 -2 -1 -0 1 0 -1 0 2 4 10 14 15 15 15 14 14 13
1 0 -0 -1 -1 -1 -1 -1 -1 -1 -1 -2 -2 -2 -2 -3 -2 -3 -4 -4 -3 -3 -3 -3 -3 -2 -2 -2 -1 -1 -0 -1 -0 0 2 6 13 15 16 15 14 14 13
0 -0 -0 -1 -1 -1 -1 -2 -2 -2 -2 -2 -3 -3 -3 -3 -3 -4 -5 -4 -4 -4 -4 -4 -3 -3 -3 -3 -3 -2 -1 -1 -1 -0 2 6 11 15 15 15 14 13 13
-0 -0 -1 -1 -1 -1 -2 -2 -2 -2 -2 -2 -3 -3 -4 -3 -4 -6 -5 -5 -5 -4 -4 -4 -4 -4 -4 -4 -4 -3 -3 -2 -1 -1 2 7 11 13 14 15 15 13 13
-0 -1 -1 -1 -1 -2 -2 -1 -2 -2 -2 -3 -3 -4 -3 -3 -5 -6 -6 -6 -5 -4 -5 -5 -5 -4 -5 -5 -5 -5 -4 -4 -2 -2 -1 1 9 12 13 14 14 12 12
-1 -1 -2 -2 -2 -2 -2 -2 -2 -2 -2 -2 -3 -4 -3 -3 -5 -6 -6 -5 -4 -5 -5 -5 -5 -5 -6 -6 -6 -5 -5 -4 -4 -4 -2 -1 -0 3 10 14 14 13 14
-1 -2 -2 -2 -2 -2 -2 -2 -2 -2 -2 -2 -3 -4 -3 -4 -6 -7 -7 -4 -3 -4 -5 -5 -6 -6 -7 -6 -6 -6 -5 -5 -5 -5 -3 -2 -1 -0 4 5 7 11 11
-2 -2 -3 -3 -3 -2 -3 -3 -3 -3 -2 -3 -3 -4 -4 -4 -6 -7 -7 -5 -4 -5 -4 -5 -6 -7 -7 -7 -7 -6 -6 -5 -5 -5 -4 -3 -3 -2 2 4 3 5 4
-3 -3 -3 -3 -3 -3 -3 -3 -3 -3 -3 -3 -4 -4 -5 -5 -6 -7 -7 -6 -6 -6 -5 -5 -6 -8 -8 -7 -7 -7 -6 -7 -6 -5 -5 -4 -4 -3 -2 -1 0 2 2
-4 -4 -4 -4 -4 -4 -4 -3 -4 -3 -4 -4 -5 -4 -5 -6 -6 -7 -7 -7 -7 -7 -6 -6 -7 -8 -8 -8 -8 -8 -8 -8 -6 -5 -5 -4 -5 -5 -4 -2 -2 -1 -0
-4 -4 -5 -5 -5 -5 -4 -4 -4 -4 -5 -5 -5 -5 -6 -6 -7 -7 -8 -8 -8 -8 -7 -8 -8 -9 -8 -8 -8 -8 -8 -8 -7 -5 -5 -5 -5 -5 -4 -4 -3 -1 -1
-6 -6 -6 -6 -6 -6 -6 -6 -6 -6 -6 -6 -6 -7 -7 -7 -8 -8 -8 -9 -8 -9 -8 -9 -9 -9 -8 -7 -8 -8 -8 -8 -8 -7 -6 -5 -5 -5 -5 -4 -3 -2 -0
-7 -8 -8 -8 -8 -7 -7 -7 -7 -7 -7 -7 -8 -8 -8 -8 -9 -9 -9 -9 -9 -9 -10 -8 -8 -9 -8 -8 -7 -8 -7 -9 -8 -8 -7 -6 -5 -5 -5 -4 -3 -3 -1
-8 -8 -8 -8 -8 -8 -7 -8 -8 -9 -9 -9 -9 -9 -10 -10 -10 -10 -10 -11 -11 -11 -11 -8 -8 -9 -9 -8 -8 -8 -8 -8 -9 -8 -7 -6 -6 -5 -5 -4 -4 -3 -2
-7 -7 -8 -8 -8 -8 -8 -8 -8 -10 -10 -11 -11 -11 -11 -11 -11 -11 -11 -11 -11 -11 -10 -9 -9 -10 -10 -10 -9 -9 -9 -9 -9 -9 -8 -7 -7 -6 -5 -5 -5 -4 -2
-9 -9 -8 -8 -8 -8 -8 -9 -9 -9 -9 -10 -11 -11 -12 -12 -12 -12 -12 -12 -11 -11 -11 -11 -11 -11 -11 -11 -10 -10 -10 -10 -10 -9 -9 -8 -8 -7 -6 -5 -5 -4 -3
-10 -10 -9 -9 -9 -9 -9 -9 -9 -9 -10 -10 -10 -11 -12 -13 -12 -12 -12 -12 -11 -11 -12 -12 -12 -12 -12 -11 -11 -11 -11 -11 -10 -10 -9 -9 -8 -8 -7 -6 -5 -5 -5
-10 -10 -10 -10 -10 -10 -10 -10 -10 -10 -10 -10 -11 -11 -13 -13 -12 -12 -12 -12 -12 -12 -12 -12 -12 -12 -12 -12 -12 -12 -12 -11 -11 -10 -10 -10 -9 -9 -8 -7 -6 -6 -5
-10 -12 -11 -10 -10 -10 -10 -10 -10 -10 -10 -11 -11 -12 -14 -13 -12 -12 -13 -13 -13 -13 -13 -13 -13 -13 -13 -13 -13 -13 -12 -12 -11 -11 -11 -10 -10 -9 -8 -7 -7 -6 -5
-9 -10 -11 -10 -10 -10 -11 -11 -11 -11 -11 -11 -12 -13 -15 -14 -13 -13 -13 -13 -14 -14 -14 -14 -14 -13 -14 -14 -13 -13 -13 -12 -12 -12 -11 -11 -11 -9 -8 -8 -7 -6 -5
-10 -10 -10 -10 -11 -11 -12 -11 -11 -11 -11 -12 -12 -13 -14 -13 -13 -14 -14 -14 -14 -14 -14 -14 -14 -14 -14 -14 -14 -14 -13 -13 -13 -13 -13 -12 -11 -10 -9 -8 -7 -7 -6
-10 -11 -10 -10 -11 -12 -11 -11 -12 -12 -12 -12 -13 -13 -13 -14 -14 -14 -14 -15 -15 -15 -15 -15 -15 -15 -15 -15 -15 -14 -14 -14 -14 -14 -13 -13 -12 -10 -10 -9 -8 -7 -6
-11 -11 -11 -11 -11 -12 -12 -12 -12 -12 -13 -13 -13 -13 -14 -14 -14 -15 -15 -15 -16 -16 -15 -15 -15 -15 -15 -15 -15 -15 -15 -15 -15 -14 -14 -13 -12 -10 -10 -9 -8 -8 -7
-11 -12 -12 -12 -12 -12 -12 -12 -12 -13 -13 -13 -14 -14 -14 -14 -15 -15 -15 -16 -16 -16 -16 -16 -16 -15 -15 -15 -15 -15 -16 -16 -16 -15 -15 -13 -11 -11 -10 -10 -9 -8 -7
-12 -12 -12 -12 -12 -12 -12 -13 -13 -13 -14 -14 -14 -15 -15 -15 -15 -16 -16 -16 -17 -17 -16 -16 -16 -16 -16 -15 -15 -16 -16 -16 -16 -16 -15 -12 -12 -11 -11 -10 -9 -9 -7
Height
841 839 836 833 831 829 825 821 818 815 811 807 804 802 797 794 788 783 778 773 767 761 756 750 744 739 732 727 723 717 712 708 694 677 668 657 651 646 645 645 650 650 654
841 837 835 831 829 827 823 819 817 813 809 806 804 800 795 791 786 780 775 771 764 757 751 746 739 734 728 722 716 709 704 699 690 675 661 648 638 634 635 636 639 640 644
838 836 834 831 828 825 821 818 815 811 808 805 802 797 793 788 783 778 773 767 760 754 747 741 734 729 723 717 711 703 695 687 679 671 650 641 626 626 624 624 627 630 634
836 835 832 829 826 823 819 816 813 810 806 803 799 795 791 786 781 777 770 763 756 749 743 737 731 726 719 712 704 696 687 678 668 657 642 629 619 611 611 612 615 618 624
834 833 830 827 824 821 817 814 812 808 805 801 797 793 788 783 778 774 767 759 751 744 738 733 727 722 716 710 702 691 682 672 662 651 635 617 607 603 599 596 602 607 615
832 831 828 825 822 818 816 812 809 806 802 798 794 790 786 780 776 772 765 756 747 741 734 728 723 717 710 703 694 684 677 666 657 648 635 621 596 587 582 585 597 603 608
830 829 826 823 820 817 814 811 807 803 800 795 791 788 783 778 774 769 762 752 744 738 732 725 719 713 707 697 687 677 669 660 655 647 633 618 603 590 575 578 585 590 595
829 827 824 821 819 816 813 809 806 802 798 793 789 786 781 776 772 767 760 750 742 736 730 724 718 711 704 696 684 671 664 655 646 638 628 613 603 596 571 574 581 586 594
828 825 823 820 818 814 811 808 805 800 796 792 788 784 779 775 770 765 758 749 742 735 728 723 717 710 703 694 684 670 662 655 641 629 619 620 613 590 582 578 583 587 594
826 823 821 819 817 814 811 807 803 799 795 791 787 783 778 774 769 764 758 750 742 735 727 720 715 710 702 693 684 674 656 652 643 632 625 617 603 599 595 581 580 590 593
824 822 820 819 816 813 810 806 802 798 794 790 787 781 777 773 768 763 758 751 744 735 727 719 713 707 700 691 683 676 666 651 642 636 628 617 608 595 585 583 593 591 594
823 822 820 819 816 812 809 805 801 798 794 790 786 781 777 773 768 763 757 751 745 737 728 721 714 706 699 691 682 674 667 658 646 639 636 626 606 607 595 591 592 593 597
823 822 821 818 816 812 809 805 802 799 795 791 787 782 777 772 767 762 756 750 743 737 730 723 715 707 698 691 686 677 667 659 651 639 633 627 620 616 609 601 599 595 596
823 822 821 818 815 813 809 806 803 800 797 793 788 784 779 773 768 762 755 748 742 735 729 721 715 708 700 693 685 678 674 668 658 648 640 635 629 620 612 610 606 603 601
823 822 820 817 814 812 809 807 804 802 800 796 792 786 781 775 770 764 757 750 744 738 729 722 715 709 702 695 689 684 676 668 658 654 649 639 632 628 623 618 616 613 610
822 820 819 816 814 812 809 806 804 801 799 796 793 789 783 778 771 764 757 751 745 738 730 724 718 713 707 699 692 687 680 672 667 663 656 648 642 638 634 628 624 621 620
821 820 818 816 814 812 810 807 804 800 797 794 791 787 783 777 770 764 757 751 745 740 734 728 722 716 711 706 699 691 685 681 675 668 663 657 650 641 633 631 630 627 623
820 819 817 816 815 813 811 808 805 801 796 791 789 785 780 775 769 764 758 751 745 741 737 732 727 720 714 709 704 698 691 683 677 671 664 657 650 646 640 636 634 633 631
818 817 816 815 815 813 811 807 804 800 796 792 787 784 779 774 768 763 759 754 749 744 740 735 730 724 718 712 706 699 693 685 678 673 668 662 656 650 647 643 641 637 633
817 815 815 814 813 811 809 807 803 800 796 793 788 784 780 774 768 764 760 756 752 748 743 738 732 727 722 715 709 702 695 689 683 677 673 668 661 654 648 642 638 636 633
815 814 814 813 812 811 809 806 803 799 796 793 789 785 783 777 771 767 762 758 754 750 745 740 734 729 724 719 713 706 700 694 689 685 679 673 666 660 655 649 642 636 630
814 813 813 812 811 809 808 805 802 799 796 793 789 785 782 777 773 768 764 759 755 751 746 741 736 731 726 721 715 709 704 698 692 686 678 671 665 660 654 648 642 637 633
813 812 811 810 810 808 806 804 801 798 795 792 789 785 781 777 773 769 765 760 756 751 746 742 737 732 727 722 717 712 706 700 694 688 681 674 667 662 656 651 645 639 635
812 811 810 809 808 806 804 802 799 797 795 791 788 784 781 777 773 769 765 761 756 751 746 742 737 733 728 722 717 711 705 699 692 686 681 675 668 663 658 653 647 642 638
810 810 809 807 806 804 802 799 797 795 792 790 787 783 780 776 772 769 765 761 756 751 746 741 736 732 727 722 717 711 705 699 692 685 679 673 667 661 655 649 644 640 636
809 808 807 805 804 802 800 797 795 793 790 787 784 781 778 775 771 767 763 759 755 750 745 740 735 730 725 720 715 710 704 697 691 685 678 673 666 659 653 649 644 639 634
Wind_Speed
9 12 12 12 13 13 13 15 16 18 19 18 19 21 21 21 21 22 23 23 26 27 27 27 27 27 27 23 25 24 26 24 16 33 40 48 42 41 38 40 41 44 50
10 11 12 11 12 13 14 16 17 18 18 18 19 20 20 20 22 21 22 26 27 29 29 27 27 26 26 26 25 28 28 29 28 19 38 42 45 43 40 38 44 42 41
10 11 10 11 12 13 14 15 17 18 18 18 18 19 20 21 23 21 24 26 28 29 28 27 27 26 26 25 27 29 29 30 29 27 32 41 43 41 39 39 37 34 35
9 9 9 10 11 13 14 15 17 18 18 19 19 19 19 22 20 24 27 29 31 29 27 26 26 25 27 29 31 31 29 30 28 28 29 32 38 42 41 32 28 31 31
7 8 9 10 12 13 14 15 16 17 17 18 19 18 18 21 19 28 30 31 31 28 25 25 26 25 25 28 31 32 31 28 24 24 25 23 29 29 35 33 28 23 29
6 8 9 11 12 14 15 16 17 17 17 18 18 19 21 21 20 27 30 34 28 26 28 27 27 26 28 29 33 35 31 28 24 23 23 12 23 32 27 25 23 9 7
6 7 9 11 13 14 15 16 17 17 18 18 19 18 22 22 23 28 31 33 25 25 26 27 26 26 30 33 36 36 29 28 24 27 24 20 24 12 16 28 26 23 15
6 7 9 11 13 14 15 16 17 18 18 19 20 19 22 22 23 28 33 29 25 26 26 23 25 27 31 36 34 34 28 29 28 27 25 25 22 24 6 6 7 13 13
6 8 10 12 14 14 16 17 17 18 19 20 20 21 23 24 25 28 32 29 27 29 26 24 24 27 33 32 31 30 28 25 29 28 24 17 16 21 6 11 10 5 1
7 9 10 11 13 14 16 16 17 18 19 20 20 21 21 24 25 27 31 29 28 30 27 26 25 28 30 29 28 26 30 29 28 26 25 22 22 20 20 20 16 5 1
7 9 10 11 13 13 15 16 18 18 19 19 20 22 21 23 25 27 30 29 28 29 27 28 28 32 30 27 27 26 28 32 28 20 20 21 22 25 27 23 18 15 8
7 8 10 12 12 14 15 16 17 17 18 19 21 22 22 24 23 27 30 29 28 28 26 28 29 33 29 25 26 28 28 25 25 21 16 18 23 25 26 25 18 14 9
7 9 10 11 12 13 14 15 15 15 17 19 20 22 24 25 25 28 28 30 28 28 26 27 27 28 26 23 24 25 25 27 25 22 23 22 23 21 20 22 18 16 14
6 8 9 10 13 13 12 13 14 15 17 19 20 22 23 25 26 30 29 29 28 28 29 24 23 23 23 23 24 25 23 24 24 24 24 23 23 23 23 21 17 20 12
5 7 9 9 12 13 12 11 11 12 14 17 19 21 23 24 28 28 28 29 26 28 27 23 23 24 25 26 25 25 25 27 28 27 25 25 24 22 21 20 17 14 10
5 7 8 9 11 12 14 14 10 7 11 13 17 19 21 22 25 26 26 26 22 24 21 22 22 23 24 26 27 26 26 27 27 25 24 23 23 20 18 18 17 14 9
5 7 7 9 10 12 13 13 15 16 13 13 17 20 21 24 24 24 25 23 19 21 20 21 22 24 24 24 25 26 26 25 25 24 23 23 22 21 21 18 17 15 15
4 6 7 8 9 11 11 13 14 15 17 19 18 20 22 24 22 21 23 20 21 21 20 21 22 24 25 25 24 25 26 26 26 26 25 25 23 22 20 19 18 17 14
4 5 6 6 7 9 10 11 12 14 15 17 19 19 23 24 21 20 20 19 20 21 22 21 22 22 24 25 26 25 26 27 26 26 25 24 24 22 20 19 17 16 16
2 5 5 6 7 8 10 11 12 14 15 16 18 19 24 22 22 22 21 20 20 21 22 22 22 22 22 24 25 26 26 26 26 26 26 25 24 23 22 22 20 19 16
2 3 4 5 6 8 9 10 11 12 14 15 16 16 19 19 19 20 21 21 20 21 21 22 22 22 22 23 23 24 25 25 25 26 26 25 24 22 21 20 19 19 19
2 3 4 4 6 7 9 9 10 12 13 14 16 17 17 17 18 19 20 20 20 20 20 20 21 21 22 23 23 23 24 25 27 27 27 27 25 23 22 22 20 19 19
2 3 4 4 6 7 8 9 10 12 13 14 15 17 17 18 18 19 20 20 20 20 20 20 20 21 22 23 21 21 24 25 27 27 26 26 24 23 23 21 20 19 19
1 3 4 5 6 7 8 10 11 11 12 13 14 16 16 17 18 18 19 19 20 20 19 20 19 20 23 24 22 23 23 27 27 25 26 24 22 23 22 19 18 17 18
2 3 4 5 7 8 9 10 11 12 12 13 14 15 17 17 18 18 19 19 20 21 20 21 19 22 23 23 22 26 27 27 27 27 26 22 22 23 21 21 20 19 18
3 5 6 7 8 10 11 12 12 13 13 14 15 16 17 17 18 18 19 19 21 22 21 20 21 22 24 22 23 27 28 28 27 27 24 21 23 23 23 22 20 20 18
Wind_Direction
340 340 340 340 336 333 335 338 335 332 331 329 323 322 322 321 324 324 323 320 320 317 315 313 306 304 300 297 288 284 283 282 277 287 272 268 259 234 226 222 222 217 224
337 339 339 340 339 337 340 340 335 334 332 330 323 324 326 325 325 327 325 323 321 319 317 313 309 310 305 300 298 294 289 285 277 285 276 276 249 239 228 220 220 221 219
338 338 338 341 341 341 342 340 336 333 332 330 327 327 330 329 330 330 328 324 322 320 317 313 312 312 310 309 307 302 298 291 286 284 279 276 257 241 233 224 218 216 216
340 336 338 340 340 343 343 341 337 335 332 332 331 329 331 332 332 334 332 328 325 322 319 316 312 312 313 316 314 310 308 301 296 297 286 267 265 239 227 212 207 207 208
337 337 341 342 343 345 345 340 337 336 334 333 334 333 334 335 338 338 334 331 326 324 323 320 316 314 315 321 318 313 312 311 302 304 296 277 260 246 220 209 206 198 206
342 341 343 346 347 347 343 340 339 338 337 336 337 338 336 339 346 339 336 331 326 327 325 326 321 320 328 324 323 319 314 312 312 310 308 298 277 225 212 196 194 180 198
345 345 347 349 348 345 342 341 340 340 338 339 340 340 339 339 347 341 340 331 329 331 328 327 326 329 329 329 326 322 320 322 316 307 304 320 319 296 195 193 191 194 200
351 349 351 350 347 344 343 342 341 340 339 341 343 337 339 340 349 344 344 339 335 336 332 331 329 330 332 330 329 321 328 326 325 326 324 343 343 302 144 142 154 184 189
357 353 353 350 345 343 343 342 342 340 341 342 346 339 342 339 348 346 347 342 338 337 336 337 335 334 335 333 332 326 326 329 334 343 349 336 329 20 75 124 78 101 9
358 356 353 348 343 341 341 341 341 340 341 343 343 342 344 342 344 347 349 345 340 338 337 338 338 341 338 338 338 339 332 335 331 339 344 352 359 12 34 59 65 80 54
5 359 354 348 344 341 340 342 342 344 343 346 343 343 345 346 342 345 347 347 343 337 335 337 337 339 341 343 346 347 341 337 337 345 344 345 349 6 16 40 47 56 52
11 3 356 351 349 345 344 345 345 347 345 345 343 343 344 344 344 345 344 344 342 339 335 333 334 336 342 345 349 348 349 352 344 349 356 353 1 351 7 16 29 41 36
19 8 358 355 354 352 349 349 347 346 346 345 344 342 342 342 342 344 343 342 341 338 336 331 334 339 341 347 349 355 356 352 352 357 350 357 357 359 9 10 14 26 44
23 8 360 356 357 357 354 352 350 351 348 346 345 342 341 340 343 345 343 342 340 340 337 336 339 344 346 349 355 356 360 357 356 356 350 351 357 4 9 10 9 11 23
23 10 4 359 357 354 353 351 347 353 353 349 346 342 343 339 340 340 342 341 340 338 334 341 347 352 352 352 355 356 356 360 2 355 351 355 0 6 8 8 7 7 16
19 10 4 1 359 353 348 345 350 350 350 344 346 346 341 338 338 341 343 342 342 345 345 349 350 352 354 350 351 352 356 357 355 351 351 356 356 0 3 5 2 3 2
23 8 6 5 359 353 348 343 338 338 339 343 345 344 344 341 342 344 346 346 348 352 355 351 350 350 350 351 350 349 350 350 349 351 348 351 352 353 359 3 4 3 354
23 17 11 4 357 349 343 340 338 338 338 339 343 345 345 345 344 346 349 351 353 358 357 352 349 347 346 347 348 347 346 347 350 348 347 349 352 353 356 358 355 348 343
25 20 12 2 351 343 341 341 341 340 340 340 340 344 347 347 348 350 354 356 351 350 351 350 348 346 345 344 344 345 345 345 346 347 347 345 346 348 346 345 341 339 337
26 27 18 359 348 346 343 343 343 344 342 343 344 347 346 347 353 352 353 353 351 349 347 346 345 345 344 344 343 343 344 347 347 347 342 342 343 342 339 339 339 336 334
22 14 8 350 345 343 341 342 342 341 341 341 343 346 348 342 346 346 346 347 346 345 344 343 342 343 343 343 342 343 343 343 343 340 338 338 337 336 334 333 331 332 332
16 7 354 342 338 339 338 337 339 338 337 337 338 340 343 343 343 342 341 341 340 339 340 340 340 342 343 341 340 340 340 340 339 337 335 333 334 333 334 332 333 334 329
354 353 342 336 333 328 329 332 332 333 332 332 334 336 340 340 339 339 338 337 336 336 337 338 338 339 342 341 339 339 337 337 334 332 331 330 329 329 331 328 328 328 329
319 329 329 330 329 327 330 328 329 329 328 328 330 332 333 333 334 335 335 335 334 333 333 335 334 336 338 340 340 340 337 335 335 333 331 326 325 327 327 325 325 323 319
285 316 324 326 326 326 325 327 328 328 328 327 328 328 328 328 328 330 330 331 332 333 332 332 332 334 336 336 338 339 337 338 338 336 333 329 327 328 329 327 328 325 320
278 298 308 311 312 313 315 315 316 318 319 321 321 323 325 323 323 324 325 327 328 328 328 330 328 331 334 335 337 338 339 339 340 339 340 334 335 335 334 329 327 326 323